{"data":{"norad_id":50212,"epoch":"2026-05-25T03:56:38.608800Z","epoch_age_seconds":54860,"freshness":"FRESH","line1":"1 50212U 21126A   26145.16433575  .00000144  00000+0  00000+0 0  9991","line2":"2 50212   0.0687 341.5128 0004200  12.6477 349.7415  1.00272517 16061","mean_motion":1.00272517,"eccentricity":0.00042,"inclination_deg":0.0687,"raan_deg":341.5128,"arg_perigee_deg":12.6477,"mean_anomaly_deg":349.7415,"bstar":0,"rev_number":1606,"period_min":1436.0864203698,"perigee_km":35768.680655029,"apogee_km":35804.098857504,"semimajor_km":42164.526756267,"source":"CELESTRAK","updated_at":"2026-05-25T13:38:14.105266Z"}}